RPB7602 SKRG-SKCG

Flight info

Callsign RPB7602
Flight time 0h 46m
Altitude 32000
Route BUTAL3A BUTAL DCT AKPAM AKPAM2A
Aircraft B738/M-SDE2E3FGHIRWXY/LB1

Departure

Time 2026-04-28 19:50
Airport Jose Maria Córdova International Airport (SKRG)

Arrival

Time 2026-04-28 20:37
Airport Rafael Nuñez International Airport (SKCG)
Time Latitude Longitude Altitude Speed Heading
2026-04-28 19:25 6.16999 -75.42736 7019 ft 0 kts 317°
2026-04-28 19:40 6.16995 -75.42731 7019 ft 2 kts 320°
2026-04-28 19:40 6.16981 -75.42721 7017 ft 2 kts 332°
2026-04-28 19:40 6.16965 -75.42717 7020 ft 2 kts 14°
2026-04-28 19:40 6.16951 -75.42725 7017 ft 2 kts 46°
2026-04-28 19:41 6.16941 -75.42737 7019 ft 2 kts 55°
2026-04-28 19:41 6.16936 -75.42744 7017 ft 1 kts 57°
2026-04-28 19:41 6.16934 -75.42747 7017 ft 0 kts 57°
2026-04-28 19:43 6.16948 -75.42726 7017 ft 6 kts 53°
2026-04-28 19:43 6.16991 -75.42684 7018 ft 11 kts 37°
2026-04-28 19:43 6.17036 -75.42633 7018 ft 11 kts 75°
2026-04-28 19:44 6.17016 -75.42577 7014 ft 7 kts 146°
2026-04-28 19:44 6.16955 -75.42542 7015 ft 14 kts 150°
2026-04-28 19:44 6.16842 -75.42487 7003 ft 21 kts 171°
2026-04-28 19:44 6.16670 -75.42482 6991 ft 29 kts 179°
2026-04-28 19:45 6.16445 -75.42480 6985 ft 36 kts 179°
2026-04-28 19:45 6.16177 -75.42477 6975 ft 41 kts 179°
2026-04-28 19:45 6.15888 -75.42476 6974 ft 41 kts 180°
2026-04-28 19:45 6.15609 -75.42471 6972 ft 38 kts 180°
2026-04-28 19:46 6.15358 -75.42471 6976 ft 34 kts 179°
2026-04-28 19:46 6.15132 -75.42471 6977 ft 31 kts 180°
2026-04-28 19:46 6.14960 -75.42471 6977 ft 18 kts 180°
2026-04-28 19:46 6.14902 -75.42462 6976 ft 2 kts 139°
2026-04-28 19:47 6.14893 -75.42448 6973 ft 3 kts 115°
2026-04-28 19:47 6.14888 -75.42428 6975 ft 3 kts 92°
2026-04-28 19:47 6.14888 -75.42425 6975 ft 0 kts 92°
2026-04-28 19:48 6.14888 -75.42418 6975 ft 4 kts 92°
2026-04-28 19:49 6.14887 -75.42379 6974 ft 6 kts 87°
2026-04-28 19:49 6.14906 -75.42339 6973 ft 7 kts 40°
2026-04-28 19:49 6.14944 -75.42312 6976 ft 6 kts 31°
2026-04-28 19:49 6.15066 -75.42297 6978 ft 44 kts 357°
2026-04-28 19:50 6.16511 -75.42311 6987 ft 155 kts 360°
2026-04-28 19:50 6.17723 -75.42323 7170 ft 185 kts 360°
2026-04-28 19:50 6.18954 -75.42345 8093 ft 175 kts
2026-04-28 19:51 6.20221 -75.42347 8501 ft 190 kts
2026-04-28 19:51 6.21574 -75.42298 8923 ft 206 kts
2026-04-28 19:51 6.22912 -75.41743 9229 ft 213 kts 44°
2026-04-28 19:51 6.23648 -75.40494 9648 ft 214 kts 82°
2026-04-28 19:52 6.23466 -75.39026 10182 ft 212 kts 109°
2026-04-28 19:52 6.23430 -75.37546 10581 ft 217 kts 68°
2026-04-28 19:52 6.24187 -75.36247 11085 ft 218 kts 59°
2026-04-28 19:52 6.24975 -75.34921 11489 ft 222 kts 61°
2026-04-28 19:53 6.25961 -75.33730 11904 ft 227 kts 34°
2026-04-28 19:53 6.27462 -75.33180 12220 ft 240 kts
2026-04-28 19:53 6.29152 -75.33211 12347 ft 260 kts 357°
2026-04-28 19:53 6.31082 -75.33364 12462 ft 280 kts 356°
2026-04-28 19:54 6.33089 -75.33541 12574 ft 303 kts 356°
2026-04-28 19:54 6.35292 -75.33737 12750 ft 326 kts 355°
2026-04-28 19:54 6.37580 -75.33935 13054 ft 341 kts 356°
2026-04-28 19:54 6.39984 -75.34137 13646 ft 347 kts 356°
2026-04-28 19:55 6.42414 -75.34338 14308 ft 350 kts 356°
2026-04-28 19:55 6.44830 -75.34535 14919 ft 353 kts 356°
2026-04-28 19:55 6.47304 -75.34734 15540 ft 357 kts 356°
2026-04-28 19:55 6.49776 -75.34931 16161 ft 360 kts 356°
2026-04-28 19:56 6.52304 -75.35132 16799 ft 363 kts 356°
2026-04-28 19:56 6.54828 -75.35333 17430 ft 367 kts 356°
2026-04-28 19:56 6.57394 -75.35536 18054 ft 371 kts 356°
2026-04-28 19:56 6.59954 -75.35739 18621 ft 374 kts 356°
2026-04-28 19:57 6.62569 -75.35947 19101 ft 379 kts 356°
2026-04-28 19:57 6.65214 -75.36156 19600 ft 382 kts 356°
2026-04-28 19:57 6.67892 -75.36368 20105 ft 386 kts 356°
2026-04-28 19:57 6.70556 -75.36580 20589 ft 390 kts 356°
2026-04-28 19:58 6.73283 -75.36796 21073 ft 394 kts 356°
2026-04-28 19:58 6.76050 -75.37015 21550 ft 398 kts 356°
2026-04-28 19:58 6.78779 -75.37232 22066 ft 400 kts 356°
2026-04-28 19:58 6.81577 -75.37454 22513 ft 405 kts 356°
2026-04-28 19:59 6.84398 -75.37678 22961 ft 408 kts 356°
2026-04-28 19:59 6.87252 -75.37905 23462 ft 410 kts 356°
2026-04-28 19:59 6.90084 -75.38130 23841 ft 414 kts 356°
2026-04-28 19:59 6.92966 -75.38359 24193 ft 417 kts 356°
2026-04-28 20:00 6.95880 -75.38591 24592 ft 419 kts 355°
2026-04-28 20:00 6.98818 -75.38824 24981 ft 422 kts 355°
2026-04-28 20:00 7.01741 -75.39056 25375 ft 424 kts 355°
2026-04-28 20:00 7.04702 -75.39253 25773 ft 425 kts 357°
2026-04-28 20:01 7.07653 -75.39384 26142 ft 428 kts 357°
2026-04-28 20:01 7.10651 -75.39491 26474 ft 431 kts 358°
2026-04-28 20:01 7.13663 -75.39591 26834 ft 434 kts 358°
2026-04-28 20:01 7.16682 -75.39695 27189 ft 436 kts 357°
2026-04-28 20:02 7.19693 -75.39804 27561 ft 438 kts 357°
2026-04-28 20:02 7.22754 -75.39920 27924 ft 440 kts 357°
2026-04-28 20:02 7.25846 -75.40041 28278 ft 442 kts 356°
2026-04-28 20:02 7.28893 -75.40162 28717 ft 441 kts 356°
2026-04-28 20:03 7.31961 -75.40286 29213 ft 439 kts 356°
2026-04-28 20:03 7.35017 -75.40409 29703 ft 438 kts 356°
2026-04-28 20:03 7.38054 -75.40532 30146 ft 438 kts 356°
2026-04-28 20:03 7.41112 -75.40656 30573 ft 436 kts 356°
2026-04-28 20:04 7.44109 -75.40777 31012 ft 434 kts 356°
2026-04-28 20:04 7.47120 -75.40898 31431 ft 433 kts 355°
2026-04-28 20:04 7.50141 -75.41020 31810 ft 433 kts 355°
2026-04-28 20:05 7.56132 -75.41262 31871 ft 431 kts 355°
2026-04-28 20:05 7.62154 -75.41505 31871 ft 431 kts 355°
2026-04-28 20:06 7.68128 -75.41747 31862 ft 432 kts 355°
2026-04-28 20:06 7.74160 -75.41991 31856 ft 432 kts 355°
2026-04-28 20:07 7.80170 -75.42234 31849 ft 432 kts 355°
2026-04-28 20:07 7.86167 -75.42476 31842 ft 432 kts 355°
2026-04-28 20:08 7.92183 -75.42719 31839 ft 431 kts 355°
2026-04-28 20:08 7.98161 -75.42961 31838 ft 431 kts 355°
2026-04-28 20:09 8.04164 -75.43204 31836 ft 430 kts 355°
2026-04-28 20:09 8.10156 -75.43446 31833 ft 429 kts 355°
2026-04-28 20:10 8.16000 -75.43681 31822 ft 418 kts 355°
2026-04-28 20:10 8.21811 -75.43917 31830 ft 418 kts 355°
2026-04-28 20:10 8.24704 -75.44035 31514 ft 419 kts 355°
2026-04-28 20:11 8.27609 -75.44153 31206 ft 414 kts 355°
2026-04-28 20:11 8.30485 -75.44269 30850 ft 411 kts 355°
2026-04-28 20:11 8.33325 -75.44384 30496 ft 408 kts 355°
2026-04-28 20:11 8.36140 -75.44498 30141 ft 407 kts 355°
2026-04-28 20:12 8.38967 -75.44613 29728 ft 406 kts 355°
2026-04-28 20:12 8.41783 -75.44727 29315 ft 403 kts 356°
2026-04-28 20:12 8.44584 -75.44841 28910 ft 400 kts 356°
2026-04-28 20:12 8.46430 -75.44915 28647 ft 398 kts 356°
2026-04-28 20:13 8.50101 -75.45064 28130 ft 394 kts 356°
2026-04-28 20:13 8.52843 -75.45176 27747 ft 392 kts 356°
2026-04-28 20:13 8.55567 -75.45286 27360 ft 389 kts 356°
2026-04-28 20:13 8.58237 -75.45395 26998 ft 387 kts 356°
2026-04-28 20:14 8.60931 -75.45504 26629 ft 385 kts 356°
2026-04-28 20:14 8.63615 -75.45613 26251 ft 383 kts 356°
2026-04-28 20:14 8.66254 -75.45720 25887 ft 381 kts 357°
2026-04-28 20:14 8.68900 -75.45828 25501 ft 380 kts 357°
2026-04-28 20:15 8.71552 -75.45936 25122 ft 379 kts 357°
2026-04-28 20:15 8.73422 -75.46012 24778 ft 381 kts 357°
2026-04-28 20:15 8.76085 -75.46120 24376 ft 381 kts 357°
2026-04-28 20:15 8.78718 -75.46227 23982 ft 381 kts 357°
2026-04-28 20:16 8.81375 -75.46335 23603 ft 380 kts 358°
2026-04-28 20:16 8.84029 -75.46443 23182 ft 379 kts 358°
2026-04-28 20:16 8.86636 -75.46549 22779 ft 377 kts 358°
2026-04-28 20:16 8.89252 -75.46655 22423 ft 374 kts 358°
2026-04-28 20:17 8.91844 -75.46760 22033 ft 372 kts 358°
2026-04-28 20:17 8.94401 -75.46864 21669 ft 369 kts 358°
2026-04-28 20:17 8.96964 -75.46969 21304 ft 367 kts 358°
2026-04-28 20:17 8.99487 -75.47071 20945 ft 365 kts 358°
2026-04-28 20:18 9.02046 -75.47175 20577 ft 363 kts 358°
2026-04-28 20:18 9.03745 -75.47244 20336 ft 361 kts 358°
2026-04-28 20:18 9.07060 -75.47379 19868 ft 358 kts 358°
2026-04-28 20:18 9.09525 -75.47480 19505 ft 357 kts 358°
2026-04-28 20:19 9.11203 -75.47548 19264 ft 356 kts 358°
2026-04-28 20:19 9.12806 -75.47613 19113 ft 352 kts 358°
2026-04-28 20:19 9.15249 -75.47713 18808 ft 349 kts 358°
2026-04-28 20:20 9.21862 -75.47982 17846 ft 345 kts 358°
2026-04-28 20:20 9.24230 -75.48078 17479 ft 343 kts 358°
2026-04-28 20:20 9.26637 -75.48176 17112 ft 340 kts 358°
2026-04-28 20:20 9.28973 -75.48272 16769 ft 338 kts 358°
2026-04-28 20:21 9.31315 -75.48367 16429 ft 336 kts 359°
2026-04-28 20:21 9.33649 -75.48462 16089 ft 334 kts 359°
2026-04-28 20:21 9.35190 -75.48525 15864 ft 332 kts 359°
2026-04-28 20:21 9.38245 -75.48649 15422 ft 331 kts 359°
2026-04-28 20:22 9.39817 -75.48713 15188 ft 330 kts 359°
2026-04-28 20:22 9.42060 -75.48805 14856 ft 328 kts 359°
2026-04-28 20:22 9.44355 -75.48898 14523 ft 327 kts 359°
2026-04-28 20:22 9.46635 -75.48991 14190 ft 326 kts 359°
2026-04-28 20:23 9.48893 -75.49083 13839 ft 325 kts 359°
2026-04-28 20:23 9.51142 -75.49172 13520 ft 323 kts 359°
2026-04-28 20:23 9.53387 -75.49257 13174 ft 321 kts 359°
2026-04-28 20:23 9.55625 -75.49341 12841 ft 319 kts 359°
2026-04-28 20:24 9.57809 -75.49422 12515 ft 317 kts 359°
2026-04-28 20:24 9.60013 -75.49505 12183 ft 315 kts 359°
2026-04-28 20:24 9.62186 -75.49586 11863 ft 313 kts 359°
2026-04-28 20:24 9.64371 -75.49668 11539 ft 311 kts 359°
2026-04-28 20:25 9.66531 -75.49749 11215 ft 310 kts 359°
2026-04-28 20:25 9.68693 -75.49830 10886 ft 308 kts 359°
2026-04-28 20:25 9.70806 -75.49910 10572 ft 307 kts 359°
2026-04-28 20:25 9.72975 -75.49992 10238 ft 306 kts 359°
2026-04-28 20:26 9.75048 -75.50070 10074 ft 299 kts 359°
2026-04-28 20:26 9.77122 -75.50148 9768 ft 298 kts 359°
2026-04-28 20:26 9.79196 -75.50226 9452 ft 297 kts 359°
2026-04-28 20:26 9.81249 -75.50303 9132 ft 295 kts 359°
2026-04-28 20:27 9.83299 -75.50380 8826 ft 294 kts 359°
2026-04-28 20:27 9.85328 -75.50457 8516 ft 292 kts 359°
2026-04-28 20:27 9.87365 -75.50533 8213 ft 290 kts 359°
2026-04-28 20:27 9.89384 -75.50610 7910 ft 289 kts 359°
2026-04-28 20:28 9.91358 -75.50684 7622 ft 287 kts 359°
2026-04-28 20:28 9.93381 -75.50760 7314 ft 287 kts 359°
2026-04-28 20:28 9.95372 -75.50835 7023 ft 285 kts 359°
2026-04-28 20:28 9.97334 -75.50909 6725 ft 285 kts 359°
2026-04-28 20:29 9.99325 -75.50984 6431 ft 284 kts 359°
2026-04-28 20:29 10.01290 -75.51058 6121 ft 283 kts 359°
2026-04-28 20:29 10.03241 -75.51132 5808 ft 282 kts 359°
2026-04-28 20:29 10.05204 -75.51206 5513 ft 280 kts 359°
2026-04-28 20:30 10.07153 -75.51280 5215 ft 279 kts 359°
2026-04-28 20:30 10.09098 -75.51354 4918 ft 278 kts 359°
2026-04-28 20:30 10.11032 -75.51427 4623 ft 276 kts 359°
2026-04-28 20:30 10.12617 -75.51487 4374 ft 275 kts 359°
2026-04-28 20:31 10.14513 -75.51558 4085 ft 274 kts 359°
2026-04-28 20:31 10.16431 -75.51630 3886 ft 268 kts 359°
2026-04-28 20:31 10.18224 -75.51698 3815 ft 252 kts 359°
2026-04-28 20:31 10.19911 -75.51763 3683 ft 233 kts 359°
2026-04-28 20:32 10.21483 -75.51823 3544 ft 217 kts 359°
2026-04-28 20:32 10.22934 -75.51879 3425 ft 202 kts 359°
2026-04-28 20:32 10.24315 -75.51932 3311 ft 199 kts 359°
2026-04-28 20:32 10.25724 -75.51984 3142 ft 203 kts 359°
2026-04-28 20:33 10.27125 -75.51994 3013 ft 204 kts
2026-04-28 20:33 10.28589 -75.51933 2732 ft 207 kts
2026-04-28 20:33 10.30004 -75.51871 2469 ft 205 kts
2026-04-28 20:33 10.31417 -75.51812 2226 ft 199 kts
2026-04-28 20:34 10.32762 -75.51757 1968 ft 192 kts
2026-04-28 20:34 10.34067 -75.51704 1722 ft 180 kts
2026-04-28 20:34 10.35278 -75.51655 1511 ft 166 kts
2026-04-28 20:34 10.36401 -75.51609 1280 ft 156 kts
2026-04-28 20:35 10.37447 -75.51566 1092 ft 150 kts
2026-04-28 20:35 10.38452 -75.51525 935 ft 140 kts
2026-04-28 20:35 10.39418 -75.51486 716 ft 134 kts
2026-04-28 20:35 10.40339 -75.51449 580 ft 134 kts
2026-04-28 20:36 10.41296 -75.51409 389 ft 144 kts
2026-04-28 20:36 10.42269 -75.51370 210 ft 135 kts
2026-04-28 20:36 10.43192 -75.51332 57 ft 128 kts
2026-04-28 20:36 10.43969 -75.51303 50 ft 94 kts
2026-04-28 20:37 10.44472 -75.51281 49 ft 52 kts
2026-04-28 20:37 10.44635 -75.51294 47 ft 6 kts 314°
2026-04-28 20:37 10.44647 -75.51326 47 ft 6 kts 281°
2026-04-28 20:37 10.44641 -75.51369 50 ft 6 kts 253°
2026-04-28 20:38 10.44636 -75.51410 50 ft 6 kts 270°
2026-04-28 20:38 10.44634 -75.51448 50 ft 5 kts 250°
2026-04-28 20:38 10.44613 -75.51460 50 ft 3 kts 200°
2026-04-28 20:38 10.44606 -75.51480 50 ft 3 kts 271°
2026-04-28 20:39 10.44608 -75.51503 50 ft 3 kts 273°
2026-04-28 20:39 10.44609 -75.51526 50 ft 3 kts 272°
2026-04-28 20:39 10.44609 -75.51543 50 ft 0 kts 274°